OBJECT A, 61869

Orbit data source: Space-Track

You're viewing an Uncataloged Satellite

Recently launched and/or uncataloged satellites may have evolving metadata. Metadata may include but not limited to: Owner, Maufacturer, Bus, Motor, and Mission.

OBJECT A, 61869 is a satellite owned by Hangtian Hongtu (CN) in SSO that was launched on Sat, 09 Nov 2024 UTC via a CHANG ZHENG 2C launch vehicle from the Jiuquan Satellite Launch Center, China (JSC). Unknown objects in Earth's orbit typically refer to objects detected orbiting the Earth but have not yet been identified or cataloged. These objects could be anything from previously untracked satellites, spent rocket stages, debris from satellite collisions, or even natural meteoroids temporarily captured by Earth's gravity.

Loading next visibility...
Identifier
61869, 2024-203A
Orbit
SSO
Country
Flag of CNCN / PRC
Related business
Manufacturer
Yinhe
Mission
Operational Commercial Radar Imaging
Bus & Motor
PIESAT, Unknown motor
Mass
320 kg wet, 320 kg dry
Launch date (UTC)
2024-11-09 (10 months ago)
Launch vehicle
CHANG ZHENG 2C
Launch site
Jiuquan Satellite Launch Center, China (JSC)
Object type
Unknown
Shape & HBR
Box + 2 Pan, 2.0 m
Radar Cross Section
2.315 m², Large (>1 m²)

Expand to show TLE details & history
Last TLE update: 16 hours ago

TLE from 16 hours ago
0 OBJECT A
1 61869U 24203A   25261.34442286  .00010702  00000-0  48066-3 0  9997
2 61869  97.4552 328.1015 0013841 198.6642 161.4088 15.21254200 47503
Epoch: 2025-09-18T08:15Z
TLE epoch observation values (Epoch: 2025-09-18T08:15:58.135Z)
Latitude
0.00001°
Longitude
-153.39809°
Altitude
514.176 km
Speed
7.602 km/s
True Right ascension
21h 52m 24s
True Declination
0° 00' 00"
Sunlit
Object was in full shadow at epoch
Visualization orbit readout
Latitude
Unknown
Longitude
Unknown
Altitude
Unknown
Speed
Unknown
Apparent Right ascension
Unknown
Apparent Declination
Unknown
Sunlit
N/A
Visualization observer readout
Local Sidereal Time
17:27:44
Azimuth
Unknown
Elevation
Unknown
Doppler factor
Unknown
Orbital elements
Apogee altitude
508.541 km
Perigee altitude
489.504 km
Semi-major axis
6,877.16 km
Eccentricity
0.00138
Inclination
97.4552°
RAAN
328.1015°
Arg. of periapsis
198.6642°
True anomaly
161.45928°
Mean anomaly
161.4088°
Eccentric anomaly
161.43405°
Mean motion
3.80566 °/min
Orbital period
94.6 mins
BSTAR
0.00048066
Loading maneuver chart data...
Computing Atmospheric mass density...
Loading historical data...
Loading historical data...
Loading historical data...
Loading historical data...
Loading historical data...
Loading historical data...
Loading historical data...
Other satellites on launch #203 in the year 2024 (2024-11-09 UTC)

Documentation

Showing up to 5 results
|